Location: New Town
(33.2710°N, 90.7534°W)
Time: 13:55:56
(UTC+00:00)

Explorer 11/Cluster Stage 4 - Pass Details

Date: 20 May 2021
Orbit: 467 x 1257 km, 28.8° (Epoch: 14 June)

Event Time Altitude Azimuth Distance (km) Brightness Sun altitude
Rises 06:04:37 0° 266° (W) 4,196 10.3 -36.7°
Enters shadow 06:04:41 - 265° (W) 4,176 10.2 -36.7°
Reaches altitude 10° 06:09:06 10° 245° (WSW) 3,206 - -36.6°
Maximum altitude 06:13:16 15° 214° (SW) 2,777 - -36.6°
Drops below altitude 10° 06:17:17 10° 182° (S) 3,046 - -36.5°
Sets 06:21:23 0° 160° (SSE) 3,868 - -36.4°
